Flag for U.S.A. Weather past 2 weeks in Waterbury, Connecticut, U.S.A.

Now
61 °F

Broken clouds.


Feels Like: 61 °F
Forecast: 43 / 65 °F
Wind: 5 mph from Southeast

Location: Oxford

Current Time: Oct 21, 2014 at 6:06:50 PM

Latest Report: Oct 21, 2014 at 4:50 PM


Visibility: 10 mi

Pressure: 29.87 "Hg

Humidity: 59%

Dew point: 46 °F

Location of WaterburyLocation

Historic Weather in Waterbury — Graph

°F

Waterbury temperature yesterday

Maximum temperature yesterday: 54 °F (at 2:50 PM)
Minimum temperature yesterday: 32 °F (at 2:35 AM)
Average temperature yesterday: 42 °F

Past Weeks' High & Low Weather Summary

 TemperatureHumidityPressure
High73 °F (Oct 14, 2:50 PM)100% (Oct 18, 8:45 AM)30.35 "Hg (Oct 18, 8:45 AM)
Low32 °F (Oct 20, 2:35 AM)37% (Oct 9, 3:55 PM)29.54 "Hg (Oct 18, 2:50 PM)
Average55 °F73%29.98 "Hg
* Reported Oct 6 5:50 PM — Oct 21 4:50 PM, Waterbury, Weather by CustomWeather, © 2014

Note: Actual official high and low records may vary slightly from our data, if they occured in-between our weather recording intervals... More about our weather records

Advertising

Waterbury weather history for previous 24 hours

 ConditionsComfort  
Time TempWeatherWind HumidityBarometerVisibility
4:50 PM
Oct 21
61 °FBroken clouds.5 mph59%29.87 "Hg10 mi
3:50 PM63 °FMostly cloudy.7 mph52%29.86 "Hg10 mi
2:45 PM63 °FCloudy.9 mph49%29.86 "Hg10 mi
1:45 PM64 °FBroken clouds.12 mph52%29.87 "Hg10 mi
12:45 PM63 °FPartly sunny.9 mph59%29.91 "Hg10 mi
11:50 AM61 °FPartly sunny.12 mph59%29.91 "Hg10 mi
10:50 AM57 °FBroken clouds.7 mph67%29.92 "Hg10 mi
9:50 AM54 °FBroken clouds.7 mph72%29.92 "Hg10 mi
8:50 AM50 °FPartly sunny.6 mph76%29.93 "Hg10 mi
7:50 AM46 °FPassing clouds.6 mph82%29.93 "Hg10 mi
6:55 AM46 °FPassing clouds.3 mph76%29.92 "Hg10 mi
5:50 AM46 °FPassing clouds.No wind76%29.91 "Hg10 mi
5:35 AM46 °FClear.6 mph76%29.91 "Hg10 mi
5:15 AM46 °FClear.5 mph76%29.91 "Hg10 mi
4:55 AM45 °FClear.No wind81%29.92 "Hg10 mi
4:35 AM45 °FClear.No wind76%29.92 "Hg10 mi
4:15 AM46 °FClear.No wind76%29.92 "Hg10 mi
3:55 AM48 °FClear.3 mph71%29.92 "Hg10 mi
3:35 AM46 °FClear.5 mph76%29.93 "Hg10 mi
3:15 AM48 °FClear.3 mph76%29.94 "Hg10 mi
2:55 AM48 °FClear.No wind76%29.95 "Hg10 mi
2:35 AM52 °FClear.3 mph72%29.95 "Hg10 mi
2:15 AM52 °FClear.3 mph72%29.95 "Hg10 mi
1:55 AM52 °FPassing clouds.5 mph72%29.96 "Hg10 mi
1:35 AM52 °FOvercast.5 mph72%29.96 "Hg10 mi
1:15 AM52 °FOvercast.5 mph67%29.97 "Hg10 mi
12:55 AM50 °FPassing clouds.No wind67%29.97 "Hg10 mi
12:35 AM50 °FPassing clouds.No wind67%29.97 "Hg10 mi
12:15 AM48 °FClear.No wind66%29.98 "Hg10 mi
11:55 PM
Oct 20
50 °FClear.No wind62%29.97 "Hg10 mi
11:15 PM50 °FClear.No wind62%29.98 "Hg10 mi
10:55 PM50 °FClear.No wind62%29.98 "Hg10 mi
10:35 PM50 °FClear.3 mph62%29.98 "Hg10 mi
10:15 PM50 °FClear.No wind62%29.98 "Hg10 mi
9:55 PM50 °FClear.3 mph62%29.98 "Hg10 mi
9:35 PM50 °FClear.5 mph62%29.98 "Hg10 mi
9:15 PM48 °FClear.6 mph66%29.99 "Hg10 mi
8:50 PM48 °FPassing clouds.No wind66%29.98 "Hg10 mi
7:50 PM48 °FPassing clouds.No wind58%29.98 "Hg10 mi
6:50 PM48 °FScattered clouds.3 mph58%29.98 "Hg10 mi
Weather by CustomWeather, © 2014

See weather overviewHow to use our weather pages